Comodoro Rivadavia, Argentina

9:07 PM America en Octubre 22, 2017 (GMT +0000)
GEN. Enrique Mosconi International

Tiempo Historia de SAVC - Octubre, 2017

Change the Weather History Date:

Viernes, Octubre 13, 2017

  Actual Average Record
Temperature  
Temperatura media 59 ° F -  
Temperatura máxima 69 ° F 68 ° F 74 ° F (2015)
Temperatura mínima 49 ° F 47 ° F 37 ° F (1997)
Degree Days  
Grados día de calefacción 6    
Growing Degree Days 9 (Base 50)    
Moisture  
Punto de rocío 41 ° F    
Average Humidity 45    
Maximum Humidity 67    
Minimum Humidity 28    
Precipitación  
Precipitación 0.00 pul 0.02 pul - ()
Presión al nivel del mar  
Presión al nivel del mar 29.85 pul    
Viento  
Velocidad del viento 18 mph ()    
Velocidad máxima del viento 40 mph    
Max Gust Speed 62 mph    
Visibilidad 8.1 Millas    
Eventos      
Averages and records for this station are not official NWS values.
T = Trace of Precipitation, MM = Missing Value Source: Averaged Metar Reports

Daily Weather History Graph

Daily Weather History Graph

Search for Another Location

Airport or City:

Trip Planner

Search our weather history database for the weather conditions in past years. The results will help you decide how hot, cold, wet, or windy it might be!

Date:

Astronomía

Oct. 13, 2017 Salida Puesta
Hora real 6:38 AM -03 7:54 PM -03
Crepúsculo civil 6:07 AM -03 8:25 PM -03
Crepúsculo náutico 5:30 AM -03 9:02 PM -03
Crepúsculo astronómico 4:51 AM -03 9:42 PM -03
Luna 3:28 AM -03 (10/13) 1:13 PM -03 (10/13)
Horas de luz 14h 17m
Horas de luz
13h 16m
Cuarto menguante, 38% of the Moon is Illuminated
Oct 13
Cuarto menguante
Oct 19
Nueva
Oct 27
Cuarto creciente
Nov 4
Luna llena
Nov 10
Cuarto menguante

Hourly Weather History & Observations

Hora (-03) Temp. Punto de rocío Humedad Presión Visibilidad Wind Dir Velocidad del viento Velocidad de ráfagas Precip Eventos Condiciones
12:00 AM 61 ° F 40 ° F 33% 30.04 pul 19 mi OSO 10.4 mph - -  
12:00 AM 60.8 ° F 39.2 ° F 45% 30.06 pul - OSO 10.4 mph - N/A   Despejado
1:00 AM 59.0 ° F 39.2 ° F 48% 30.09 pul - Oeste 9.2 mph - N/A   Despejado
2:00 AM 59.0 ° F 39.2 ° F 48% 30.09 pul - Oeste 10.4 mph - N/A   Despejado
3:00 AM 54 ° F 38 ° F 44% 30.06 pul 19 mi Oeste 11.5 mph - -  
3:00 AM 53.6 ° F 39.2 ° F 58% 30.09 pul - Oeste 11.5 mph - N/A   Despejado
4:00 AM 53.6 ° F 39.2 ° F 58% 30.06 pul - Oeste 12.7 mph - N/A   Despejado
5:00 AM 51.8 ° F 37.4 ° F 58% 30.06 pul - Oeste 11.5 mph - N/A   Despejado
6:00 AM 51 ° F 39 ° F 54% 30.02 pul 19 mi Oeste 10.4 mph - -   Despejado
6:00 AM 51.8 ° F 39.2 ° F 62% 30.04 pul - Oeste 10.4 mph - N/A   Despejado
7:00 AM 51.8 ° F 39.2 ° F 62% 30.04 pul - ONO 10.4 mph - N/A   Despejado
8:00 AM 53.6 ° F 42.8 ° F 67% 30.01 pul - Variable 4.6 mph - N/A   Despejado
8:43 AM 53.6 ° F 42.8 ° F 67% 29.98 pul - ONO 16.1 mph 29.9 mph N/A   Despejado
9:00 AM 56 ° F 41 ° F 46% 29.95 pul 16 mi ONO 18.4 mph - -   Viento de arena
9:00 AM 57.2 ° F 41.0 ° F 55% 29.98 pul - ONO 18.4 mph 32.2 mph N/A   Despejado
10:00 AM 62.6 ° F 42.8 ° F 48% 29.92 pul - ONO 19.6 mph 33.4 mph N/A   Despejado
11:00 AM 66.2 ° F 42.8 ° F 43% 29.89 pul - Oeste 23.0 mph 36.8 mph N/A   Despejado
11:14 AM 66.2 ° F 42.8 ° F 43% 29.83 pul - ONO 26.5 mph 48.3 mph N/A   Despejado
11:36 AM 66.2 ° F 42.8 ° F 43% 29.89 pul 3.7 mi ONO 40.3 mph 56.4 mph N/A   Desconocido
12:00 PM 65 ° F 40 ° F 29% 29.78 pul 5 mi ONO 36.8 mph - -   Viento de arena
12:00 PM 64.4 ° F 41.0 ° F 42% 29.83 pul 5.0 mi ONO 36.8 mph 56.4 mph N/A   Desconocido
1:00 PM 68.0 ° F 41.0 ° F 37% 29.77 pul 4.3 mi ONO 32.2 mph 55.2 mph N/A   Desconocido
2:00 PM 68.0 ° F 41.0 ° F 37% 29.68 pul 3.1 mi ONO 38.0 mph 62.1 mph N/A   Desconocido
3:00 PM 67 ° F 42 ° F 28% 29.66 pul 3 mi ONO 36.8 mph - -   Viento de arena
3:00 PM 68.0 ° F 41.0 ° F 37% 29.68 pul 3.1 mi ONO 36.8 mph 52.9 mph N/A   Desconocido
4:00 PM 68.0 ° F 41.0 ° F 37% 29.68 pul 5.0 mi ONO 35.7 mph 52.9 mph N/A   Desconocido
5:00 PM 68.0 ° F 42.8 ° F 40% 29.65 pul 5.0 mi ONO 28.8 mph 50.6 mph N/A   Desconocido
6:00 PM 67 ° F 42 ° F 29% 29.62 pul 6 mi ONO 36.8 mph - -   Viento de arena
6:00 PM 68.0 ° F 42.8 ° F 40% 29.65 pul - ONO 36.8 mph 51.8 mph N/A   Despejado
7:00 PM 64.4 ° F 41.0 ° F 42% 29.62 pul - ONO 32.2 mph 46.0 mph N/A   Despejado
8:00 PM 64.4 ° F 41.0 ° F 42% 29.65 pul - ONO 32.2 mph 47.2 mph N/A   Despejado
9:00 PM 63 ° F 40 ° F 32% 29.60 pul 6 mi Oeste 39.1 mph - -   Viento de arena
9:00 PM 62.6 ° F 41.0 ° F 45% 29.62 pul - Oeste 39.1 mph 58.7 mph N/A   Despejado
10:00 PM 62.6 ° F 39.2 ° F 42% 29.62 pul - Oeste 40.3 mph 59.8 mph N/A   Despejado
11:00 PM 60.8 ° F 41.0 ° F 48% 29.68 pul - ONO 33.4 mph 52.9 mph N/A   Despejado